Location: Kampernieuwstad
(52.5135°N, 5.8742°E)
Time: 10:27:44
(UTC+00:00)

Cosmos 909 Rocket - Pass Details

Date: 15 May 2026
Orbit: 989 x 2090 km, 65.9° (Epoch: 5 June)

Event Time Altitude Azimuth Distance (km) Brightness Sun altitude
Rises 20:13:06 0° 209° (SSW) 3,757 6.9 -6.4°
Reaches altitude 10° 20:15:41 10° 207° (SSW) 2,766 6.2 -6.7°
Maximum altitude 20:21:54 70° 125° (SE) 1,061 4.0 -7.4°
Drops below altitude 10° 20:28:26 10° 44° (NE) 2,902 6.5 -8.1°
Sets 20:31:13 0° 42° (NE) 3,956 7.3 -8.3°
